[[{"header":{"parameterUnit":"m.s-1","parameterCategory":2,"la1":30.2991,"la2":30.254,"lo1":-89.0895,"lo2":-89.0444,"dy":0.0017,"dx":0.0017,"nx":28,"ny":28,"refTime":"2024-04-27T03:00:00:Z","depth":"0","parameterNumber":2,"parameterNumberName":"U-component_of_CURRENTS"},"data":[0,0,0,0,0,0,0,0,0,0,0,0,0,0,0,0,0,0,0,0,0,0,0,0,0,0,0,0,0,0,0,0,0,0,0,0,0,0,0,0,0,0,0,0,0,0,0,0,0,0,0,0,0,0,0,0,0,0,0.1869,0.1869,0,0.1816,0.1815,0.1814,0.1787,0.1787,0.1788,0.1788,0.1795,0.1795,0.1795,0,0,0,0,0,0,0,0,0,0,0,0,0,0.1893,0.1893,0.1869,0.1869,0.1868,0.1816,0.1815,0.1813,0.1787,0.1787,0.1788,0.1788,0.1796,0.1795,0.1795,0,0,0,0,0,0,0,0,0,0,0,0,0,0.186,0.1893,0.1869,0.1853,0.1852,0.1816,0.1815,0.1813,0.1786,0.1787,0.1788,0.1789,0.1796,0.1795,0.1795,0.1776,0,0,0.1793,0.1793,0,0,0,0,0,0,0,0,0.1862,0.1859,0.1856,0.1854,0.1853,0.1814,0.1826,0.1806,0.1786,0.1805,0.1788,0.1789,0.1811,0.1809,0.1788,0.1777,0.1777,0.1793,0.1793,0.1793,0.1793,0,0,0,0,0,0,0,0.1864,0.186,0.1842,0.1856,0.1854,0.1831,0.1827,0.1821,0.18,0.1803,0.1803,0.1806,0.1809,0.1788,0.1788,0.1777,0.1793,0.1793,0.1793,0.1793,0.1893,0.1896,0,0,0,0,0,0,0.1885,0.1863,0.1843,0.1841,0.1866,0.1831,0.1826,0.1821,0.1799,0.1798,0.1805,0.1805,0.1789,0.1789,0.1788,0.1876,0.1793,0.1793,0.1792,0.189,0.1894,0.1897,0,0,0,0,0,0,0.1885,0.1883,0.1846,0.1856,0.185,0.183,0.1824,0.1819,0.1806,0.1801,0.18,0.18,0.1789,0.1789,0.1816,0.1873,0.1792,0.1792,0.1887,0.1891,0.1895,0.1982,0,0,0,0,0,0,0.1886,0.1883,0.1881,0.1857,0.1851,0.1836,0.1824,0.1818,0.181,0.1809,0.1796,0.1797,0.179,0.1817,0.1816,0.1871,0.1792,0.1883,0.1889,0.1894,0.1975,0.1989,0.2,0,0,0,0,0,0.1887,0.1873,0.1881,0.1879,0.1849,0.1837,0.1831,0.1815,0.1809,0.1805,0.1816,0.1797,0.1852,0.1818,0.1816,0.1872,0.188,0.1887,0.1893,0.197,0.1986,0.2,0,0,0,0,0,0,0.1879,0.1869,0.1877,0.1861,0.1862,0.1835,0.1828,0.1819,0.1816,0.1825,0.1814,0.1816,0.1869,0.1857,0.1819,0.1923,0.1871,0.1878,0.193,0.1945,0.1957,0.194,0.1791,0,0,0,0,0,0.1881,0.1866,0.1868,0.1856,0.1863,0.1848,0.184,0.1837,0.1835,0.1833,0.183,0.185,0.1891,0.1905,0.1923,0.1959,0.194,0.2003,0.2016,0.2026,0.2015,0.2032,0.2043,0.1919,0.1918,0.1918,0,0,0.1876,0.1867,0.1861,0.1854,0.1852,0.1873,0.1844,0.1842,0.1869,0.1837,0.1868,0.1884,0.191,0.1968,0.1992,0.1966,0.206,0.2035,0.2043,0.2025,0.204,0.2051,0.2062,0.1923,0.1922,0.1922,0,0,0.1865,0.1858,0.1855,0.1865,0.1876,0.1879,0.1886,0.188,0.189,0.192,0.1932,0.1979,0.2002,0.2048,0.2074,0.2162,0.2124,0.218,0.2226,0.2244,0.2253,0.2261,0.2277,0.2286,0.2187,0.2187,0.2188,0,0.1869,0.1866,0.1853,0.187,0.1887,0.1892,0.1918,0.1933,0.1939,0.1956,0.1948,0.202,0.2048,0.2138,0.2186,0.2191,0.2181,0.2164,0.2256,0.2264,0.227,0.2285,0.2293,0.2192,0.2192,0.2191,0.2191,0,0.1869,0.1881,0.1883,0.1916,0.193,0.1948,0.1988,0.2008,0.2023,0.2038,0.2105,0.2137,0.2176,0.222,0.2232,0.2315,0.2289,0.2266,0.2209,0.2287,0.2299,0.2306,0.2199,0.2198,0.2196,0.2195,0,0,0.1848,0.1879,0.1884,0.1912,0.1959,0.1968,0.2034,0.2082,0.2116,0.2147,0.2189,0.2287,0.2281,0.2312,0.2339,0.2371,0.244,0.2342,0.234,0.2341,0.2471,0.2404,0.2404,0.242,0.2421,0.2422,0.2469,0,0.1864,0.1894,0.191,0.1965,0.1995,0.2034,0.2087,0.2136,0.2171,0.2213,0.227,0.2322,0.2327,0.2355,0.2391,0.2433,0.2457,0.2428,0.2409,0.2408,0.2324,0.241,0.2251,0.2273,0.2475,0.2476,0.2477,0,0.187,0.1888,0.1935,0.1993,0.201,0.2045,0.2117,0.2163,0.2239,0.2268,0.2319,0.2347,0.2441,0.241,0.2494,0.2469,0.2472,0.2486,0.2488,0.2389,0.2352,0.2225,0.2277,0.2133,0.2487,0.2486,0.2485,0,0.1859,0.191,0.1943,0.1966,0.2035,0.2062,0.2097,0.2169,0.2214,0.2294,0.2333,0.2409,0.246,0.2483,0.2539,0.2511,0.2602,0.2564,0.2498,0.2494,0.2335,0.2314,0.2223,0.2584,0.2584,0.2584,0.2584,0,0.1874,0.1903,0.1934,0.1958,0.1995,0.2044,0.2093,0.2143,0.2217,0.228,0.2348,0.2408,0.2475,0.2539,0.2556,0.2567,0.2616,0.2514,0.2503,0.2366,0.2347,0.2193,0.2114,0.2586,0.2585,0.2585,0.2584,0,0.1873,0.1898,0.1934,0.1982,0.1993,0.2016,0.2078,0.2128,0.2195,0.228,0.2314,0.2424,0.2502,0.2563,0.2621,0.2588,0.2483,0.2585,0.2425,0.2393,0.2153,0.2085,0.191,0.1865,0.2502,0.25,0.2499,0,0.1891,0.1904,0.1929,0.1955,0.1977,0.201,0.205,0.2108,0.2161,0.2289,0.2339,0.2435,0.2481,0.255,0.2522,0.2523,0.2424,0.2369,0.2278,0.2124,0.2042,0.1945,0.1916,0.212,0.2116,0.2113,0.211,0,0.1935,0.1927,0.196,0.1979,0.2013,0.2026,0.2075,0.2098,0.2188,0.2243,0.2313,0.2347,0.2399,0.2317,0.2329,0.2313,0.2165,0.2295,0.2171,0.1762,0.1612,0.157,0.2118,0.208,0.2083,0.2085,0.2087,0.2088,0.1981,0.1995,0.2026,0.2029,0.2056,0.2046,0.2027,0.2076,0.2104,0.2145,0.2224,0.2199,0.2125,0.209,0.2068,0.1867,0.192,0.1748,0.1693,0.1623,0.1516,0.2001,0.1926,0.1928,0.193,0.1931,0.1933,0,0.2061,0.207,0.2083,0.208,0.2065,0.206,0.206,0.2023,0.2,0.2022,0.2021,0.1849,0.1719,0.1642,0.1424,0.1274,0.1229,0.1207,0.102,0.1041,0.1491,0.1409,0.1172,0.1172,0.1172,0.1173,0.1173,0.1173,0.2124,0.2153,0.2114,0.2083,0.2059,0.1999,0.1957,0.1894,0.1863,0.1713,0.1568,0.151,0.1301,0.098,0.0749,0.0743,0.0622,0.0525,0.0595,0.0864,0.091,0.0954,0.086,0.0512,0.0511,0.0095,0.0091,0.0088]},{"header":{"parameterUnit":"m.s-1","parameterCategory":2,"la1":30.2991,"la2":30.254,"lo1":-89.0895,"lo2":-89.0444,"dy":0.0017,"dx":0.0017,"nx":28,"ny":28,"refTime":"2024-04-27T03:00:00:Z","depth":"0","parameterNumber":3,"parameterNumberName":"V-component_of_CURRENTS"},"data":[0,0,0,0,0,0,0,0,0,0,0,0,0,0,0,0,0,0,0,0,0,0,0,0,0,0,0,0,0,0,0,0,0,0,0,0,0,0,0,0,0,0,0,0,0,0,0,0,0,0,0,0,0,0,0,0,0,0,0.0242,0.0242,0,0.0219,0.0219,0.0218,0.021,0.021,0.021,0.0211,0.0183,0.0182,0.0181,0,0,0,0,0,0,0,0,0,0,0,0,0,0.0241,0.0241,0.0242,0.0242,0.0242,0.0219,0.0219,0.0218,0.021,0.021,0.021,0.0211,0.0184,0.0182,0.0181,0,0,0,0,0,0,0,0,0,0,0,0,0,0.0229,0.0241,0.0242,0.0237,0.0237,0.0219,0.0219,0.0218,0.0209,0.021,0.021,0.0211,0.0184,0.0182,0.0181,0.0161,0,0,0.0176,0.0175,0,0,0,0,0,0,0,0,0.023,0.0229,0.0238,0.0237,0.0237,0.022,0.0208,0.02,0.0209,0.0217,0.0211,0.0211,0.0197,0.0194,0.0185,0.016,0.0159,0.0176,0.0175,0.0174,0.0174,0,0,0,0,0,0,0,0.0231,0.023,0.023,0.0238,0.0237,0.0223,0.0222,0.0206,0.0202,0.0216,0.0216,0.0218,0.0196,0.0186,0.0184,0.0158,0.0176,0.0175,0.0174,0.0173,0.016,0.0161,0,0,0,0,0,0,0.0241,0.0231,0.0231,0.023,0.0238,0.0223,0.0222,0.0223,0.0202,0.02,0.0218,0.0218,0.0189,0.0186,0.0183,0.0206,0.0174,0.0173,0.0172,0.0159,0.016,0.0161,0,0,0,0,0,0,0.0241,0.0241,0.0232,0.0232,0.023,0.0223,0.0224,0.0222,0.0216,0.0204,0.0201,0.0214,0.0189,0.0185,0.0187,0.0204,0.0172,0.0171,0.0159,0.016,0.0161,0.0222,0,0,0,0,0,0,0.0241,0.0241,0.0242,0.0233,0.0231,0.0229,0.0224,0.0221,0.0217,0.0217,0.02,0.0198,0.0189,0.0189,0.0185,0.0201,0.017,0.0158,0.0159,0.016,0.022,0.0225,0.023,0,0,0,0,0,0.0241,0.0239,0.0242,0.0242,0.0233,0.023,0.0227,0.0222,0.0217,0.0217,0.0214,0.0199,0.0193,0.0189,0.0184,0.0199,0.0157,0.0159,0.016,0.0217,0.0224,0.023,0,0,0,0,0,0,0.0236,0.0238,0.0241,0.024,0.024,0.023,0.0229,0.0222,0.0217,0.0218,0.0204,0.0202,0.021,0.0193,0.0188,0.0198,0.0173,0.0173,0.0218,0.0224,0.0229,0.0249,0.0168,0,0,0,0,0,0.0238,0.0236,0.024,0.0238,0.0243,0.0235,0.0232,0.0229,0.0225,0.0223,0.0217,0.021,0.0209,0.0208,0.02,0.0203,0.0188,0.0209,0.0215,0.0219,0.0232,0.0222,0.0227,0.0165,0.0165,0.0165,0,0,0.0234,0.0235,0.0234,0.0237,0.0237,0.0254,0.0234,0.0233,0.0249,0.022,0.0238,0.0226,0.0213,0.0224,0.0225,0.0214,0.0229,0.0221,0.0225,0.0235,0.0224,0.023,0.0235,0.0166,0.0166,0.0166,0,0,0.0236,0.0233,0.0241,0.0249,0.0256,0.0257,0.0261,0.026,0.0263,0.0272,0.0263,0.0265,0.0255,0.026,0.0257,0.0283,0.0255,0.0276,0.0322,0.0312,0.0317,0.0321,0.031,0.0313,0.0281,0.0281,0.0281,0,0.0236,0.025,0.0241,0.026,0.0276,0.0266,0.029,0.0291,0.0291,0.0304,0.0288,0.0293,0.0276,0.0302,0.0315,0.0297,0.0285,0.03,0.032,0.0324,0.0327,0.0315,0.0317,0.0284,0.0284,0.0284,0.0283,0,0.0253,0.0271,0.0277,0.0306,0.0315,0.0331,0.0344,0.0355,0.0355,0.0361,0.0379,0.0359,0.0368,0.0358,0.0345,0.0368,0.0349,0.0326,0.0306,0.0337,0.0322,0.0323,0.0289,0.0288,0.0287,0.0286,0,0,0.0247,0.0285,0.029,0.0323,0.0345,0.0361,0.0389,0.0421,0.0456,0.0443,0.0487,0.047,0.0461,0.0458,0.0437,0.0427,0.0436,0.0393,0.0391,0.0388,0.0416,0.0419,0.0421,0.0415,0.0416,0.0416,0.0396,0,0.0272,0.0324,0.0331,0.0389,0.0425,0.0435,0.0472,0.0495,0.0508,0.0548,0.0527,0.0555,0.0498,0.0512,0.0492,0.0461,0.0443,0.0444,0.0382,0.038,0.0384,0.0424,0.0521,0.0513,0.0397,0.0397,0.0397,0,0.0297,0.0332,0.0392,0.0459,0.0476,0.0508,0.0574,0.0605,0.0647,0.0659,0.067,0.0659,0.0663,0.0602,0.055,0.0555,0.0492,0.0449,0.0447,0.0433,0.0387,0.0462,0.0519,0.0515,0.0399,0.0399,0.0399,0,0.0323,0.0379,0.0433,0.0454,0.0522,0.0555,0.0595,0.0642,0.07,0.0738,0.079,0.0761,0.0777,0.0696,0.0621,0.0584,0.0564,0.0496,0.0433,0.0432,0.0495,0.0499,0.0549,0.0447,0.0447,0.0447,0.0447,0,0.0361,0.0405,0.0451,0.0493,0.0567,0.0596,0.0685,0.0718,0.0798,0.09,0.0858,0.0931,0.0802,0.0782,0.0672,0.0585,0.0601,0.0457,0.0435,0.0519,0.0525,0.0505,0.0479,0.0446,0.0446,0.0446,0.0447,0,0.0388,0.0418,0.0493,0.0567,0.0588,0.0648,0.0758,0.084,0.0893,0.1028,0.1056,0.1068,0.104,0.0921,0.0803,0.067,0.0574,0.0532,0.0642,0.0632,0.0524,0.0497,0.0488,0.0462,0.0434,0.0434,0.0435,0,0.0417,0.0453,0.0543,0.0607,0.0645,0.0729,0.081,0.0881,0.0985,0.1133,0.1223,0.1229,0.1264,0.1095,0.0889,0.0705,0.0636,0.0631,0.0559,0.0555,0.0509,0.0473,0.0449,0.0665,0.0667,0.0668,0.0669,0,0.0486,0.051,0.0579,0.0692,0.0783,0.0875,0.0998,0.1089,0.1212,0.1328,0.1483,0.1519,0.1385,0.1249,0.0986,0.0854,0.0657,0.0652,0.0637,0.0692,0.0672,0.0627,0.0632,0.0684,0.0682,0.0681,0.0681,0.068,0.0552,0.0606,0.0705,0.0802,0.0903,0.1033,0.1112,0.1264,0.1427,0.16,0.1652,0.1704,0.1556,0.1214,0.1043,0.082,0.073,0.0722,0.0689,0.0649,0.0643,0.0674,0.0703,0.0702,0.07,0.0699,0.0699,0,0.0667,0.0724,0.082,0.095,0.1054,0.1091,0.125,0.1321,0.1504,0.1675,0.1789,0.175,0.1617,0.1382,0.1107,0.0912,0.081,0.082,0.0822,0.0786,0.0828,0.0859,0.0941,0.0941,0.0941,0.0941,0.0941,0.0941,0.0749,0.0858,0.0881,0.1055,0.114,0.125,0.1326,0.144,0.1545,0.1679,0.1704,0.1686,0.1653,0.1379,0.1147,0.104,0.0906,0.0875,0.0752,0.0831,0.082,0.081,0.0835,0.0911,0.091,0.0766,0.0765,0.0764]}],[{"header":{"parameterUnit":"m.s-1","parameterCategory":2,"la1":30.2991,"la2":30.254,"lo1":-89.0895,"lo2":-89.0444,"dy":0.0017,"dx":0.0017,"nx":28,"ny":28,"refTime":"2024-04-27T03:00:00:Z","depth":"2","parameterNumber":2,"parameterNumberName":"U-component_of_CURRENTS"},"data":[0,0,0,0,0,0,0,0,0,0,0,0,0,0,0,0,0,0,0,0,0,0,0,0,0,0,0,0,0,0,0,0,0,0,0,0,0,0,0,0,0,0,0,0,0,0,0,0,0,0,0,0,0,0,0,0,0,0,0.19,0.19,0,0.1846,0.1845,0.1844,0.1817,0.1818,0.1818,0.1819,0.1828,0.1828,0.1827,0,0,0,0,0,0,0,0,0,0,0,0,0,0.1924,0.1924,0.19,0.19,0.19,0.1846,0.1845,0.1843,0.1817,0.1818,0.1818,0.1819,0.1828,0.1828,0.1827,0,0,0,0,0,0,0,0,0,0,0,0,0,0.1891,0.1924,0.19,0.1885,0.1883,0.1846,0.1845,0.1843,0.1817,0.1818,0.1819,0.1819,0.1828,0.1828,0.1827,0.1808,0,0,0.1826,0.1826,0,0,0,0,0,0,0,0,0.1893,0.1889,0.1887,0.1886,0.1884,0.1844,0.1857,0.1837,0.1817,0.1836,0.1819,0.182,0.1843,0.1841,0.182,0.1808,0.1809,0.1826,0.1826,0.1826,0.1826,0,0,0,0,0,0,0,0.1895,0.1891,0.1872,0.1887,0.1885,0.1862,0.1857,0.1852,0.1832,0.1834,0.1834,0.1837,0.1842,0.182,0.182,0.1809,0.1826,0.1826,0.1825,0.1825,0.1928,0.1931,0,0,0,0,0,0,0.1916,0.1893,0.1874,0.1871,0.1897,0.1861,0.1856,0.1851,0.183,0.1829,0.1836,0.1836,0.182,0.182,0.182,0.1912,0.1826,0.1825,0.1825,0.1925,0.1929,0.1932,0,0,0,0,0,0,0.1916,0.1914,0.1877,0.1886,0.1881,0.1861,0.1855,0.185,0.1836,0.1832,0.1831,0.1829,0.1821,0.1821,0.1849,0.1908,0.1825,0.1825,0.1922,0.1926,0.193,0.2021,0,0,0,0,0,0,0.1917,0.1914,0.1912,0.1888,0.1881,0.1866,0.1854,0.1849,0.1839,0.1838,0.1826,0.1827,0.1822,0.1849,0.1848,0.1906,0.1824,0.1918,0.1924,0.1929,0.2014,0.2028,0.204,0,0,0,0,0,0.1918,0.1904,0.1912,0.191,0.188,0.1867,0.186,0.1845,0.1838,0.1833,0.1846,0.1828,0.1885,0.185,0.1848,0.1908,0.1915,0.1922,0.1929,0.2008,0.2025,0.2039,0,0,0,0,0,0,0.191,0.19,0.1908,0.1892,0.1892,0.1865,0.1857,0.1847,0.1845,0.1853,0.1844,0.1847,0.19,0.1889,0.1851,0.1959,0.1906,0.1912,0.1967,0.1983,0.1995,0.1972,0.1824,0,0,0,0,0,0.1912,0.1897,0.1899,0.1886,0.1893,0.1878,0.1868,0.1864,0.1863,0.186,0.1859,0.1881,0.1922,0.1939,0.1956,0.1995,0.1974,0.2042,0.2055,0.2065,0.2049,0.2064,0.2075,0.1954,0.1954,0.1954,0,0,0.1906,0.1898,0.1891,0.1884,0.1882,0.1902,0.1872,0.1869,0.1897,0.1865,0.1898,0.1914,0.1942,0.2003,0.2027,0.2002,0.2098,0.2074,0.2083,0.206,0.2072,0.2083,0.2093,0.1959,0.1958,0.1957,0,0,0.1895,0.1888,0.1885,0.1894,0.1904,0.1907,0.1913,0.1907,0.1918,0.1948,0.1961,0.2008,0.2035,0.2083,0.211,0.22,0.2161,0.2219,0.2266,0.2282,0.2291,0.2298,0.2316,0.2324,0.2231,0.2231,0.2231,0,0.1898,0.1895,0.1882,0.1899,0.1916,0.192,0.1944,0.1961,0.1966,0.1984,0.1977,0.2051,0.208,0.2173,0.2223,0.2229,0.2219,0.2203,0.2295,0.2302,0.2308,0.2323,0.2331,0.2236,0.2235,0.2235,0.2234,0,0.1897,0.191,0.1912,0.1945,0.1957,0.1975,0.2015,0.2037,0.2053,0.2066,0.2134,0.2169,0.2208,0.2255,0.2268,0.2351,0.2326,0.2303,0.2247,0.2325,0.2338,0.2344,0.2243,0.2241,0.224,0.2239,0,0,0.1876,0.1908,0.1913,0.1941,0.1986,0.1994,0.2063,0.2111,0.2145,0.2178,0.222,0.2319,0.2312,0.2343,0.2375,0.2406,0.2473,0.2377,0.2375,0.2377,0.2503,0.243,0.2429,0.2455,0.2456,0.2457,0.2504,0,0.1892,0.1923,0.1938,0.1993,0.2023,0.2062,0.2117,0.2164,0.2199,0.2242,0.2301,0.2352,0.2359,0.2388,0.2423,0.2465,0.2488,0.2462,0.244,0.2439,0.235,0.2433,0.2184,0.2198,0.251,0.2511,0.2511,0,0.1898,0.1917,0.1963,0.2021,0.2039,0.2073,0.2145,0.2193,0.2269,0.2296,0.2346,0.2373,0.2469,0.2438,0.252,0.2497,0.2499,0.2514,0.2515,0.2408,0.2377,0.2167,0.2197,0.2521,0.252,0.2519,0.2519,0,0.1886,0.1939,0.1971,0.1994,0.2063,0.2091,0.2128,0.2198,0.2243,0.2322,0.2357,0.2433,0.2486,0.2506,0.2563,0.2536,0.2622,0.2588,0.2517,0.2512,0.2273,0.2245,0.2603,0.2603,0.2602,0.2602,0.2602,0,0.1901,0.1932,0.1963,0.1987,0.2025,0.2073,0.2123,0.2173,0.2246,0.2308,0.2372,0.2431,0.2498,0.2562,0.2578,0.2585,0.2636,0.2528,0.2519,0.2303,0.2279,0.2524,0.2514,0.2604,0.2604,0.2603,0.2603,0,0.1898,0.1924,0.1963,0.2013,0.2022,0.2047,0.211,0.2159,0.2224,0.2307,0.234,0.2448,0.2529,0.2589,0.2645,0.2604,0.2621,0.2597,0.2347,0.2306,0.249,0.2485,0.251,0.2508,0.2506,0.2504,0.2503,0,0.1917,0.1928,0.1957,0.1984,0.2008,0.2042,0.2082,0.2139,0.2193,0.2318,0.2367,0.2465,0.251,0.2573,0.2527,0.2521,0.2603,0.2276,0.2172,0.2492,0.2481,0.2479,0.2476,0.1908,0.1902,0.1897,0.1893,0,0.1956,0.195,0.1985,0.2009,0.2043,0.2062,0.2113,0.2134,0.2226,0.2265,0.233,0.2361,0.2407,0.2276,0.2277,0.224,0.2259,0.2173,0.2573,0.1973,0.1928,0.1917,0.1933,0.1849,0.1854,0.1857,0.1859,0.1861,0.2006,0.2014,0.2047,0.2065,0.2091,0.2091,0.2095,0.2108,0.2125,0.2136,0.2219,0.2146,0.2123,0.1974,0.1909,0.1844,0.2006,0.1877,0.1891,0.191,0.1834,0.1789,0.167,0.1673,0.1676,0.1678,0.1681,0,0.2064,0.2085,0.211,0.212,0.2117,0.2126,0.2139,0.2088,0.2032,0.1978,0.1942,0.1693,0.1577,0.1584,0.1392,0.1366,0.1334,0.1311,0.1242,0.1286,0.1326,0.1219,0.0892,0.089,0.0888,0.0886,0,0,0.2115,0.2141,0.2117,0.2131,0.2143,0.2119,0.2108,0.1974,0.188,0.1637,0.1495,0.1534,0.1529,0.1204,0.1138,0.0991,0.1141,0.0938,0.1566,0.1531,0.1569,0.1641,0.1526,0,0,0,0,0]},{"header":{"parameterUnit":"m.s-1","parameterCategory":2,"la1":30.2991,"la2":30.254,"lo1":-89.0895,"lo2":-89.0444,"dy":0.0017,"dx":0.0017,"nx":28,"ny":28,"refTime":"2024-04-27T03:00:00:Z","depth":"2","parameterNumber":3,"parameterNumberName":"V-component_of_CURRENTS"},"data":[0,0,0,0,0,0,0,0,0,0,0,0,0,0,0,0,0,0,0,0,0,0,0,0,0,0,0,0,0,0,0,0,0,0,0,0,0,0,0,0,0,0,0,0,0,0,0,0,0,0,0,0,0,0,0,0,0,0,0.0213,0.0213,0,0.0187,0.0186,0.0185,0.0177,0.0178,0.0178,0.0179,0.0153,0.0152,0.0151,0,0,0,0,0,0,0,0,0,0,0,0,0,0.0212,0.0212,0.0213,0.0213,0.0213,0.0187,0.0186,0.0185,0.0177,0.0178,0.0178,0.0179,0.0154,0.0152,0.0151,0,0,0,0,0,0,0,0,0,0,0,0,0,0.0199,0.0212,0.0213,0.0208,0.0208,0.0187,0.0186,0.0185,0.0177,0.0178,0.0179,0.0179,0.0154,0.0152,0.0151,0.0128,0,0,0.0146,0.0145,0,0,0,0,0,0,0,0,0.02,0.0198,0.0209,0.0209,0.0208,0.0189,0.0176,0.0167,0.0177,0.0185,0.0179,0.0179,0.0167,0.0164,0.0153,0.0127,0.0126,0.0146,0.0145,0.0144,0.0144,0,0,0,0,0,0,0,0.02,0.0199,0.0199,0.0209,0.0208,0.0192,0.0191,0.0174,0.017,0.0185,0.0185,0.0187,0.0166,0.0155,0.0153,0.0125,0.0146,0.0144,0.0143,0.0143,0.0129,0.013,0,0,0,0,0,0,0.0212,0.02,0.02,0.0199,0.0209,0.0192,0.0191,0.0192,0.017,0.0169,0.0186,0.0187,0.0157,0.0154,0.0152,0.0174,0.0144,0.0143,0.0142,0.0129,0.013,0.013,0,0,0,0,0,0,0.0212,0.0212,0.0201,0.0202,0.02,0.0192,0.0193,0.0191,0.0183,0.0172,0.017,0.0182,0.0158,0.0154,0.0156,0.0171,0.0142,0.014,0.0128,0.0129,0.013,0.0186,0,0,0,0,0,0,0.0212,0.0212,0.0213,0.0202,0.02,0.0196,0.0193,0.019,0.0185,0.0185,0.0168,0.0166,0.0158,0.0159,0.0154,0.0168,0.0139,0.0127,0.0128,0.013,0.0184,0.0189,0.0193,0,0,0,0,0,0.0212,0.0211,0.0213,0.0213,0.0203,0.0197,0.0193,0.0188,0.0184,0.0182,0.0182,0.0166,0.0163,0.0158,0.0153,0.0167,0.0127,0.0128,0.0129,0.0181,0.0188,0.0193,0,0,0,0,0,0,0.0208,0.021,0.0212,0.0211,0.0209,0.0197,0.0195,0.0188,0.0182,0.0185,0.0172,0.017,0.0178,0.0161,0.0156,0.0166,0.0143,0.0143,0.0184,0.019,0.0195,0.0207,0.0138,0,0,0,0,0,0.0209,0.0207,0.021,0.0207,0.0212,0.0203,0.0198,0.0195,0.0191,0.0188,0.0182,0.0176,0.0176,0.0176,0.0169,0.017,0.0156,0.0176,0.0181,0.0185,0.0192,0.019,0.0196,0.0135,0.0135,0.0135,0,0,0.0205,0.0206,0.0205,0.0206,0.0205,0.0218,0.0201,0.0199,0.0212,0.0186,0.0201,0.0191,0.018,0.0191,0.0192,0.0181,0.0194,0.0187,0.0191,0.0195,0.0193,0.0199,0.0204,0.0136,0.0136,0.0135,0,0,0.0205,0.0203,0.021,0.0215,0.0222,0.022,0.0222,0.0219,0.0224,0.0231,0.0225,0.0226,0.0218,0.0222,0.022,0.0244,0.022,0.024,0.0277,0.0276,0.0281,0.0285,0.0271,0.0274,0.0244,0.0244,0.0244,0,0.0205,0.0218,0.0209,0.0226,0.024,0.0227,0.0249,0.0248,0.0245,0.0262,0.0246,0.0254,0.0236,0.0261,0.0271,0.0256,0.0248,0.0256,0.0283,0.0287,0.0291,0.0275,0.0278,0.0247,0.0247,0.0247,0.0246,0,0.0218,0.0236,0.0242,0.0265,0.0272,0.0286,0.0296,0.0306,0.0307,0.0312,0.0335,0.0313,0.0325,0.0313,0.0298,0.032,0.0303,0.0289,0.027,0.03,0.0282,0.0283,0.0251,0.025,0.0249,0.0249,0,0,0.0212,0.0248,0.0253,0.0285,0.03,0.0313,0.0339,0.037,0.0406,0.0392,0.0439,0.0417,0.041,0.0407,0.0386,0.0374,0.0381,0.0345,0.0344,0.0335,0.0374,0.0367,0.0367,0.0376,0.0377,0.0377,0.035,0,0.0236,0.0285,0.0291,0.0343,0.0377,0.0385,0.042,0.0441,0.0456,0.0496,0.0478,0.0506,0.0446,0.0461,0.0439,0.0408,0.0388,0.0389,0.0342,0.0341,0.0334,0.037,0.0341,0.0315,0.0351,0.0351,0.0351,0,0.0258,0.0292,0.0349,0.0415,0.0432,0.0459,0.0525,0.0553,0.0596,0.0611,0.0624,0.0615,0.0611,0.0552,0.0499,0.0505,0.0443,0.0399,0.0397,0.0373,0.0337,0.029,0.0316,0.0353,0.0353,0.0353,0.0353,0,0.028,0.0339,0.0391,0.0411,0.0473,0.051,0.0547,0.0593,0.0649,0.0692,0.0742,0.0716,0.0729,0.0653,0.0569,0.0537,0.0509,0.0453,0.0381,0.0379,0.0336,0.0329,0.0406,0.0406,0.0406,0.0406,0.0406,0,0.0309,0.036,0.0412,0.0447,0.0524,0.0551,0.064,0.0674,0.075,0.0849,0.0811,0.0872,0.0756,0.0732,0.0621,0.0527,0.0551,0.0397,0.038,0.0354,0.035,0.0367,0.0363,0.0405,0.0405,0.0405,0.0406,0,0.0333,0.0364,0.0445,0.0519,0.054,0.0604,0.0711,0.079,0.0843,0.0972,0.1,0.1001,0.0956,0.0843,0.0726,0.0609,0.051,0.0465,0.044,0.0419,0.0354,0.0353,0.036,0.0359,0.0359,0.0359,0.0359,0,0.0363,0.0395,0.0492,0.0553,0.0594,0.0682,0.0757,0.0828,0.0927,0.1063,0.1145,0.1134,0.1123,0.0945,0.076,0.0575,0.0539,0.0412,0.0332,0.0371,0.0353,0.0352,0.0352,0.0288,0.0287,0.0286,0.0286,0,0.0416,0.0446,0.0514,0.0625,0.0714,0.0807,0.0924,0.0995,0.1115,0.1182,0.1277,0.127,0.1159,0.0939,0.0711,0.058,0.0436,0.0392,0.0464,0.0311,0.0303,0.0285,0.0287,0.028,0.0281,0.0281,0.0282,0.0282,0.0476,0.0529,0.0612,0.069,0.0825,0.0925,0.0949,0.1071,0.1154,0.125,0.1317,0.127,0.1134,0.0774,0.0603,0.0409,0.0421,0.0282,0.0284,0.0286,0.0291,0.0284,0.0256,0.0257,0.0257,0.0257,0.0258,0,0.0486,0.0549,0.0668,0.077,0.0867,0.0923,0.1058,0.1078,0.1113,0.1215,0.1241,0.1048,0.0864,0.071,0.0421,0.0258,0.0235,0.0176,0.0166,0.0173,0.0179,0.0177,0.0112,0.0111,0.0111,0.011,0,0,0.0513,0.0565,0.0587,0.0718,0.0814,0.0916,0.0945,0.0972,0.1045,0.1037,0.0995,0.1057,0.0891,0.0633,0.0434,0.0263,0.0243,0.022,0.0352,0.0368,0.0375,0.0255,0.0262,0,0,0,0,0]}],[{"header":{"parameterUnit":"m.s-1","parameterCategory":2,"la1":30.2991,"la2":30.254,"lo1":-89.0895,"lo2":-89.0444,"dy":0.0017,"dx":0.0017,"nx":28,"ny":28,"refTime":"2024-04-27T03:00:00:Z","depth":"4","parameterNumber":2,"parameterNumberName":"U-component_of_CURRENTS"},"data":[0,0,0,0,0,0,0,0,0,0,0,0,0,0,0,0,0,0,0,0,0,0,0,0,0,0,0,0,0,0,0,0,0,0,0,0,0,0,0,0,0,0,0,0,0,0,0,0,0,0,0,0,0,0,0,0,0,0,0.105,0.105,0,0.1117,0.1118,0.1119,0.1159,0.1159,0.1158,0.1158,0.122,0.1221,0.1223,0,0,0,0,0,0,0,0,0,0,0,0,0,0.103,0.103,0.105,0.105,0.1051,0.1116,0.1118,0.1119,0.1159,0.1159,0.1158,0.1158,0.1219,0.1221,0.1223,0,0,0,0,0,0,0,0,0,0,0,0,0,0.1065,0.103,0.1049,0.1076,0.1078,0.1116,0.1118,0.1119,0.1159,0.1159,0.1158,0.1158,0.1218,0.1221,0.1223,0.1244,0,0,0.1232,0.1233,0,0,0,0,0,0,0,0,0.1063,0.1066,0.1071,0.1074,0.1077,0.1126,0.1133,0.116,0.1159,0.1132,0.1158,0.1158,0.1186,0.1191,0.1209,0.1247,0.125,0.1232,0.1233,0.1235,0.1235,0,0,0,0,0,0,0,0.106,0.1064,0.108,0.1072,0.1075,0.1109,0.1114,0.1139,0.1162,0.1134,0.1137,0.1138,0.1188,0.1207,0.1211,0.1251,0.1232,0.1234,0.1236,0.1237,0.1327,0.1327,0,0,0,0,0,0,0.1041,0.1061,0.1078,0.1081,0.1065,0.1109,0.1114,0.1113,0.1162,0.1168,0.1138,0.114,0.1202,0.1208,0.1213,0.1266,0.1235,0.1237,0.1239,0.1326,0.1327,0.1328,0,0,0,0,0,0,0.1041,0.1042,0.1075,0.107,0.1076,0.1109,0.1108,0.1115,0.1155,0.1164,0.1171,0.1173,0.1202,0.1209,0.1239,0.1267,0.1238,0.1241,0.1325,0.1326,0.1327,0.1355,0,0,0,0,0,0,0.104,0.1041,0.1055,0.1069,0.1076,0.1107,0.1108,0.1116,0.1153,0.1156,0.1196,0.12,0.1203,0.1235,0.1242,0.127,0.1243,0.1324,0.1325,0.1327,0.1353,0.1357,0.136,0,0,0,0,0,0.1039,0.1053,0.1055,0.1058,0.1086,0.1108,0.1116,0.114,0.1155,0.1176,0.1193,0.12,0.125,0.1238,0.1246,0.1276,0.1323,0.1325,0.1327,0.1351,0.1356,0.136,0,0,0,0,0,0,0.1054,0.1058,0.1061,0.1076,0.1093,0.1113,0.1138,0.1156,0.1191,0.1197,0.1211,0.1216,0.1252,0.126,0.1247,0.1304,0.1288,0.1292,0.1304,0.1309,0.1313,0.1306,0.1245,0,0,0,0,0,0.106,0.1076,0.1079,0.1097,0.1101,0.1126,0.1146,0.116,0.1181,0.1199,0.1222,0.1245,0.1264,0.1282,0.1298,0.1335,0.1354,0.1359,0.1363,0.1366,0.1365,0.1434,0.1444,0.1334,0.1333,0.1333,0,0,0.1071,0.1078,0.1087,0.1103,0.1118,0.1124,0.114,0.1169,0.1182,0.1198,0.1237,0.126,0.1275,0.1308,0.1326,0.132,0.1403,0.1368,0.137,0.1368,0.1437,0.1448,0.1458,0.1335,0.1334,0.1334,0,0,0.1089,0.1104,0.1114,0.1123,0.1142,0.1151,0.1162,0.1188,0.121,0.1244,0.1255,0.1291,0.133,0.1343,0.1354,0.139,0.1418,0.1406,0.1427,0.1494,0.1504,0.1513,0.1536,0.1547,0.1412,0.1412,0.1412,0,0.1103,0.1107,0.1125,0.1129,0.1135,0.1159,0.1163,0.1187,0.1225,0.125,0.1256,0.1334,0.1342,0.1387,0.1391,0.1399,0.1434,0.1409,0.15,0.151,0.1518,0.154,0.1551,0.1413,0.1413,0.1413,0.1413,0,0.1111,0.1119,0.1127,0.1132,0.1149,0.116,0.1173,0.1207,0.1238,0.1266,0.1331,0.1357,0.1409,0.1418,0.1411,0.1482,0.1484,0.1495,0.149,0.1532,0.1551,0.1562,0.1416,0.1415,0.1415,0.1414,0,0,0.1116,0.1128,0.1131,0.1132,0.1148,0.1161,0.1185,0.1217,0.1259,0.1306,0.1372,0.1399,0.1446,0.146,0.1482,0.1528,0.1602,0.1541,0.1544,0.1564,0.1738,0.1577,0.1574,0.165,0.1652,0.1654,0.172,0,0.1112,0.1116,0.1127,0.1136,0.1132,0.1159,0.1187,0.1228,0.1278,0.1351,0.14,0.147,0.1454,0.1506,0.1549,0.1593,0.1638,0.1581,0.1693,0.1695,0.155,0.1584,0.1662,0.1729,0.1732,0.1734,0.1735,0,0.11,0.1107,0.1112,0.1136,0.114,0.1162,0.1224,0.1254,0.1346,0.1397,0.1479,0.1532,0.1601,0.1599,0.1693,0.1668,0.1704,0.173,0.1734,0.1581,0.1556,0.1684,0.1756,0.1755,0.1753,0.1752,0.175,0,0.108,0.1093,0.1101,0.1104,0.1138,0.1169,0.1203,0.1281,0.1328,0.1451,0.1514,0.1606,0.1673,0.1739,0.1762,0.176,0.186,0.1868,0.1753,0.1742,0.1857,0.1847,0.1951,0.1951,0.1951,0.1951,0.1951,0,0.1048,0.1058,0.1102,0.1104,0.1145,0.1175,0.1245,0.1299,0.1398,0.1454,0.1553,0.1608,0.1721,0.1777,0.1801,0.1786,0.1895,0.1752,0.1753,0.1862,0.1852,0.1864,0.1853,0.1953,0.1953,0.1952,0.1952,0,0.1017,0.1035,0.1057,0.111,0.1134,0.1174,0.1261,0.1306,0.1407,0.1491,0.1537,0.1644,0.1702,0.177,0.1865,0.1813,0.1832,0.1806,0.1889,0.1895,0.1663,0.1653,0.1696,0.1691,0.1687,0.1683,0.168,0,0.099,0.0998,0.1072,0.1092,0.1122,0.1185,0.1222,0.1314,0.1346,0.1477,0.1495,0.1605,0.1658,0.1652,0.1731,0.1764,0.175,0.1744,0.1717,0.1642,0.164,0.1637,0.1632,0.1673,0.1672,0.1671,0.167,0,0.0944,0.0992,0.102,0.107,0.1111,0.1143,0.1192,0.1211,0.1299,0.1413,0.1426,0.1465,0.1519,0.1562,0.1592,0.1614,0.1736,0.1699,0.1709,0.1684,0.1616,0.1617,0.1618,0.1655,0.1657,0.1659,0.166,0,0.0926,0.0946,0.099,0.102,0.1064,0.1052,0.1104,0.1115,0.1159,0.1285,0.1282,0.1389,0.1489,0.1483,0.1506,0.1511,0.1503,0.146,0.1482,0.15,0.1402,0.1284,0.1222,0,0,0,0,0,0.0888,0.0888,0.092,0.0927,0.0964,0.0981,0.1043,0.1089,0.1177,0.115,0.121,0.1247,0.1285,0.1336,0.1307,0.1428,0.1512,0.1387,0.1475,0.1574,0.1591,0.1492,0,0,0,0,0,0,0.086,0.0885,0.0888,0.0822,0.0813,0.0828,0.0868,0.094,0.0918,0.1031,0.1058,0.1152,0.1211,0.1285,0.1274,0.1292,0.1317,0.1456,0.1452,0.1564,0.1579,0.1593,0.1497,0,0,0,0,0]},{"header":{"parameterUnit":"m.s-1","parameterCategory":2,"la1":30.2991,"la2":30.254,"lo1":-89.0895,"lo2":-89.0444,"dy":0.0017,"dx":0.0017,"nx":28,"ny":28,"refTime":"2024-04-27T03:00:00:Z","depth":"4","parameterNumber":3,"parameterNumberName":"V-component_of_CURRENTS"},"data":[0,0,0,0,0,0,0,0,0,0,0,0,0,0,0,0,0,0,0,0,0,0,0,0,0,0,0,0,0,0,0,0,0,0,0,0,0,0,0,0,0,0,0,0,0,0,0,0,0,0,0,0,0,0,0,0,0,0,-0.0031,-0.0031,0,-0.0004,-0.0004,-0.0003,-0.0008,-0.0009,-0.001,-0.001,-0.0014,-0.0013,-0.0013,0,0,0,0,0,0,0,0,0,0,0,0,0,-0.0047,-0.0047,-0.0031,-0.0031,-0.0031,-0.0004,-0.0004,-0.0003,-0.0008,-0.0009,-0.001,-0.0011,-0.0014,-0.0013,-0.0013,0,0,0,0,0,0,0,0,0,0,0,0,0,-0.003,-0.0047,-0.0031,-0.0032,-0.0032,-0.0004,-0.0004,-0.0003,-0.0008,-0.0009,-0.001,-0.0011,-0.0014,-0.0014,-0.0013,0.0013,0,0,-0.001,-0.001,0,0,0,0,0,0,0,0,-0.0031,-0.0029,-0.0032,-0.0032,-0.0032,-0.0013,-0.0011,0.0,-0.0008,-0.0015,-0.001,-0.0012,-0.0017,-0.0016,-0.0005,0.0013,0.0013,-0.001,-0.001,-0.0009,-0.0009,0,0,0,0,0,0,0,-0.0033,-0.003,-0.0018,-0.0032,-0.0032,-0.002,-0.0019,-0.0008,-0.0009,-0.0014,-0.0015,-0.0015,-0.0017,-0.0006,-0.0005,0.0013,-0.001,-0.0009,-0.0009,-0.0009,0.0048,0.0049,0,0,0,0,0,0,-0.0041,-0.0032,-0.0019,-0.0018,-0.0037,-0.0019,-0.0018,-0.0016,-0.0009,-0.0009,-0.0014,-0.0016,-0.0007,-0.0006,-0.0006,0.0028,-0.0009,-0.0009,-0.0008,0.0047,0.0048,0.0049,0,0,0,0,0,0,-0.0042,-0.004,-0.002,-0.0026,-0.0023,-0.0019,-0.0016,-0.0015,-0.0006,-0.0009,-0.001,-0.0008,-0.0007,-0.0007,0.0008,0.0028,-0.0008,-0.0007,0.0045,0.0047,0.0048,0.0094,0,0,0,0,0,0,-0.0042,-0.004,-0.0037,-0.0026,-0.0023,0.0002,-0.0015,-0.0014,-0.0006,-0.0007,-0.0003,-0.0004,-0.0008,0.0006,0.0008,0.0028,-0.0007,0.0044,0.0046,0.0048,0.0091,0.0097,0.0102,0,0,0,0,0,-0.0043,-0.0032,-0.0037,-0.0036,-0.0021,0.0003,0.0006,0.0007,-0.0004,0.001,0.0008,-0.0005,0.0019,0.0008,0.001,0.0031,0.0043,0.0046,0.0048,0.0089,0.0096,0.0102,0,0,0,0,0,0,-0.0037,-0.0032,-0.0037,-0.0026,-0.0013,0.0001,0.0011,0.0011,0.0023,0.0017,0.001,0.0011,0.0031,0.0026,0.0013,0.0052,0.0029,0.0032,0.0059,0.0066,0.0071,0.0076,-0.0006,0,0,0,0,0,-0.0035,-0.0024,-0.0019,-0.0007,-0.0004,0.0003,0.0012,0.0015,0.0023,0.0027,0.0027,0.003,0.0045,0.0049,0.0058,0.0081,0.006,0.0095,0.01,0.0105,0.0111,0.01,0.0105,0.0056,0.0056,0.0056,0,0,-0.003,-0.0025,-0.002,-0.0005,0.0002,0.0023,0.0007,0.0024,0.0046,0.0025,0.005,0.0049,0.0055,0.0081,0.0089,0.0077,0.0106,0.0108,0.0111,0.0115,0.0103,0.0108,0.0112,0.0058,0.0058,0.0057,0,0,-0.0007,-0.0011,0.0006,0.0019,0.0031,0.0039,0.0043,0.0055,0.0064,0.009,0.008,0.0091,0.0109,0.012,0.0128,0.0168,0.0134,0.0168,0.02,0.019,0.0194,0.0197,0.0164,0.0164,0.017,0.017,0.017,0,-0.0004,0.0019,0.0017,0.0039,0.0053,0.0046,0.0072,0.0088,0.0105,0.0117,0.0102,0.0131,0.0132,0.0169,0.0183,0.0181,0.0157,0.0175,0.0196,0.0199,0.0201,0.0167,0.0166,0.0173,0.0173,0.0172,0.0172,0,0.0034,0.0052,0.0064,0.0088,0.0105,0.0127,0.014,0.0158,0.016,0.017,0.0198,0.0198,0.0213,0.0218,0.0216,0.024,0.0211,0.0203,0.0178,0.0209,0.0171,0.0169,0.0176,0.0175,0.0175,0.0174,0,0,0.0042,0.0082,0.0087,0.0105,0.0132,0.0149,0.0188,0.0221,0.024,0.0251,0.0277,0.0302,0.0286,0.0294,0.0286,0.0281,0.0275,0.0251,0.0249,0.0215,0.0231,0.0205,0.02,0.0265,0.0265,0.0266,0.0193,0,0.0071,0.012,0.0136,0.0183,0.0205,0.0218,0.0253,0.0281,0.0294,0.0314,0.0318,0.0337,0.032,0.0322,0.0318,0.0286,0.0274,0.0294,0.021,0.0208,0.0178,0.0199,0.0267,0.0192,0.0191,0.0191,0.0191,0,0.0102,0.0132,0.0181,0.0226,0.0236,0.0265,0.0308,0.0339,0.0369,0.0377,0.0391,0.0384,0.0391,0.0365,0.0324,0.0333,0.0291,0.0259,0.0255,0.0215,0.0179,0.0158,0.0187,0.0187,0.0188,0.0188,0.0188,0,0.0107,0.0162,0.0202,0.0218,0.0267,0.0295,0.0322,0.0358,0.0383,0.0413,0.0422,0.0423,0.0416,0.0376,0.0309,0.0318,0.0241,0.0243,0.0177,0.0173,0.0196,0.0194,0.0214,0.0215,0.0215,0.0215,0.0215,0,0.0132,0.0162,0.0207,0.0228,0.027,0.0304,0.0348,0.0373,0.041,0.0433,0.0448,0.0452,0.0418,0.0371,0.0313,0.0228,0.024,0.0185,0.016,0.0215,0.0216,0.0194,0.0192,0.0212,0.0213,0.0213,0.0214,0,0.0128,0.0162,0.0203,0.0257,0.0272,0.0301,0.0359,0.0387,0.0422,0.0451,0.0462,0.0468,0.0416,0.0355,0.0276,0.0228,0.0153,0.0117,0.0159,0.0137,0.0092,0.0094,0.0056,0.0055,0.0054,0.0053,0.0052,0,0.0125,0.0147,0.0206,0.0226,0.0251,0.0299,0.0329,0.0383,0.041,0.0452,0.0458,0.0437,0.0426,0.0293,0.0231,0.0116,0.0103,0.0057,0.0108,0.01,0.0079,0.0083,0.0086,0.005,0.005,0.005,0.0049,0,0.0105,0.0128,0.0161,0.0207,0.0244,0.0289,0.0336,0.0361,0.0417,0.0447,0.0456,0.0423,0.0361,0.0287,0.0188,0.0108,0.009,0.0045,0.0048,0.0095,0.0092,0.0073,0.0078,0.0045,0.0046,0.0046,0.0046,0,0.0077,0.0095,0.0136,0.0184,0.022,0.0265,0.0306,0.0347,0.0384,0.0438,0.0429,0.0398,0.0384,0.028,0.0186,0.0108,0.0108,0.0092,0.0092,0.0096,0.0135,0.0138,0.0088,0,0,0,0,0,0.0053,0.0078,0.0107,0.0165,0.0203,0.0238,0.0296,0.034,0.0396,0.04,0.0423,0.0371,0.0284,0.0254,0.0173,0.0156,0.0078,0.0058,0.0056,0.0023,0.0028,0.0066,0,0,0,0,0,0,0.0036,0.006,0.0095,0.0133,0.0174,0.0224,0.0271,0.0319,0.0331,0.0377,0.0332,0.0341,0.025,0.0324,0.0167,0.0147,0.0133,0.0026,0.0024,0.002,0.0025,0.0028,0.0069,0,0,0,0,0]}]]